TimeMDT,TemperatureF,Dew PointF,Humidity,Sea Level PressureIn,VisibilityMPH,Wind Direction,Wind SpeedMPH,Gust SpeedMPH,PrecipitationIn,Events,Conditions,WindDirDegrees,DateUTC
12:53 AM,27.0,5.0,39,30.05,10.0,Calm,Calm,-,N/A,,Clear,0,2012-10-08 06:53:00
1:53 AM,27.0,6.1,41,30.00,10.0,South,10.4,-,N/A,,Clear,180,2012-10-08 07:53:00
2:53 AM,35.1,3.9,27,29.93,10.0,SW,16.1,-,N/A,,Clear,220,2012-10-08 08:53:00
3:53 AM,36.0,3.9,26,29.91,10.0,SW,18.4,-,N/A,,Clear,220,2012-10-08 09:53:00
4:53 AM,35.1,3.9,27,29.91,10.0,SW,17.3,-,N/A,,Clear,220,2012-10-08 10:53:00
5:53 AM,37.9,5.0,25,29.91,10.0,WSW,17.3,-,N/A,,Clear,240,2012-10-08 11:53:00
6:53 AM,33.1,3.9,29,29.98,10.0,SSW,6.9,-,N/A,,Clear,200,2012-10-08 12:53:00
7:53 AM,37.0,6.1,28,29.96,10.0,SE,10.4,-,N/A,,Clear,140,2012-10-08 13:53:00
8:53 AM,46.9,6.1,19,29.94,10.0,WSW,10.4,-,N/A,,Clear,240,2012-10-08 14:53:00
9:53 AM,50.0,8.1,18,29.94,10.0,West,20.7,26.5,N/A,,Clear,260,2012-10-08 15:53:00
10:53 AM,54.0,10.0,17,29.87,10.0,WSW,21.9,-,N/A,,Clear,240,2012-10-08 16:53:00
11:53 AM,57.0,10.0,15,29.85,10.0,WSW,18.4,26.5,N/A,,Clear,250,2012-10-08 17:53:00
12:53 PM,59.0,8.1,13,29.83,10.0,West,24.2,36.8,N/A,,Clear,260,2012-10-08 18:53:00
1:53 PM,61.0,9.0,13,29.80,10.0,West,25.3,31.1,N/A,,Clear,260,2012-10-08 19:53:00
2:53 PM,61.0,9.0,13,29.74,10.0,West,19.6,29.9,N/A,,Clear,260,2012-10-08 20:53:00
3:53 PM,57.9,5.0,12,29.75,10.0,West,21.9,31.1,N/A,,Clear,270,2012-10-08 21:53:00
4:53 PM,59.0,3.9,11,29.75,10.0,West,21.9,31.1,N/A,,Clear,260,2012-10-08 22:53:00
5:53 PM,57.0,3.0,11,29.74,10.0,West,21.9,28.8,N/A,,Clear,270,2012-10-08 23:53:00
6:53 PM,50.0,1.9,14,29.81,10.0,West,13.8,-,N/A,,Clear,270,2012-10-09 00:53:00
7:53 PM,46.0,1.9,16,29.82,10.0,West,11.5,-,N/A,,Clear,260,2012-10-09 01:53:00
8:53 PM,43.0,3.0,19,29.79,10.0,WSW,13.8,-,N/A,,Clear,240,2012-10-09 02:53:00
9:53 PM,46.0,1.9,16,29.77,10.0,WSW,10.4,-,N/A,,Clear,250,2012-10-09 03:53:00
10:53 PM,46.9,3.0,16,29.74,10.0,WSW,10.4,-,N/A,,Clear,240,2012-10-09 04:53:00
11:53 PM,46.0,5.0,19,29.73,10.0,Calm,Calm,-,N/A,,Clear,0,2012-10-09 05:53:00